TimeEDT,TemperatureF,Dew PointF,Humidity,Sea Level PressureIn,VisibilityMPH,Wind Direction,Wind SpeedMPH,Gust SpeedMPH,PrecipitationIn,Events,Conditions,WindDirDegrees,DateUTC
12:53 AM,28.0,19.9,72,29.45,10.0,WSW,15.0,28.8,N/A,,Overcast,250,2013-04-02 04:53:00
1:19 AM,26.6,19.4,74,29.42,10.0,West,13.8,21.9,N/A,,Overcast,260,2013-04-02 05:19:00
1:53 AM,27.0,19.9,75,29.45,10.0,West,12.7,18.4,N/A,,Overcast,260,2013-04-02 05:53:00
2:15 AM,26.6,19.4,74,29.42,10.0,WSW,12.7,20.7,N/A,,Scattered Clouds,250,2013-04-02 06:15:00
2:51 AM,24.8,17.6,74,29.43,10.0,West,15.0,21.9,N/A,,Mostly Cloudy,260,2013-04-02 06:51:00
3:53 AM,24.1,14.0,65,29.47,10.0,WSW,13.8,39.1,N/A,,Clear,250,2013-04-02 07:53:00
4:53 AM,19.9,9.0,62,29.49,10.0,WSW,16.1,-,N/A,,Clear,250,2013-04-02 08:53:00
5:53 AM,19.0,8.1,62,29.52,10.0,West,13.8,25.3,N/A,,Overcast,260,2013-04-02 09:53:00
6:21 AM,17.6,8.6,68,29.50,10.0,West,9.2,20.7,N/A,,Overcast,260,2013-04-02 10:21:00
6:53 AM,18.0,9.0,68,29.54,10.0,West,12.7,20.7,N/A,,Overcast,270,2013-04-02 10:53:00
7:23 AM,17.6,10.4,73,29.51,2.5,WSW,12.7,26.5,0.00,Snow,Light Snow,250,2013-04-02 11:23:00
7:44 AM,17.6,8.6,68,29.50,6.0,WSW,17.3,24.2,0.00,Snow,Light Snow,250,2013-04-02 11:44:00
7:53 AM,18.0,9.0,68,29.54,7.0,West,12.7,25.3,0.00,Snow,Light Snow,260,2013-04-02 11:53:00
8:15 AM,17.6,8.6,68,29.51,10.0,WSW,16.1,24.2,0.00,,Overcast,250,2013-04-02 12:15:00
8:53 AM,19.0,7.0,59,29.54,10.0,West,16.1,25.3,0.00,,Overcast,260,2013-04-02 12:53:00
9:53 AM,19.9,6.1,55,29.54,10.0,West,17.3,29.9,0.00,,Overcast,270,2013-04-02 13:53:00
10:53 AM,19.9,5.0,52,29.54,10.0,WSW,19.6,32.2,N/A,,Overcast,240,2013-04-02 14:53:00
11:53 AM,19.9,3.9,50,29.54,10.0,WSW,15.0,32.2,N/A,,Overcast,250,2013-04-02 15:53:00
12:53 PM,21.0,6.1,53,29.54,10.0,SW,20.7,31.1,N/A,,Overcast,230,2013-04-02 16:53:00
1:53 PM,23.0,5.0,46,29.53,10.0,WSW,20.7,27.6,N/A,,Overcast,250,2013-04-02 17:53:00
2:53 PM,21.9,6.1,51,29.53,10.0,WSW,19.6,29.9,N/A,,Overcast,250,2013-04-02 18:53:00
3:50 PM,19.4,10.4,68,29.50,1.8,West,17.3,27.6,0.00,Snow,Light Snow,270,2013-04-02 19:50:00
3:53 PM,19.0,12.0,74,29.55,1.8,West,17.3,-,0.00,Snow,Light Snow,270,2013-04-02 19:53:00
3:57 PM,19.4,12.2,74,29.50,0.8,West,12.7,25.3,0.00,Snow,Light Snow,260,2013-04-02 19:57:00
4:06 PM,19.4,12.2,74,29.50,2.0,West,11.5,-,0.00,Snow,Light Snow,260,2013-04-02 20:06:00
4:13 PM,19.4,10.4,68,29.50,6.0,West,20.7,28.8,0.00,,Haze,260,2013-04-02 20:13:00
4:29 PM,21.2,8.6,58,29.50,9.0,West,23.0,29.9,0.00,,Overcast,260,2013-04-02 20:29:00
4:53 PM,19.9,6.1,55,29.55,8.0,WSW,18.4,27.6,0.00,Snow,Light Snow,250,2013-04-02 20:53:00
5:53 PM,19.9,7.0,57,29.57,9.0,WSW,18.4,26.5,0.00,,Overcast,240,2013-04-02 21:53:00
6:35 PM,17.6,10.4,73,29.54,1.5,WSW,18.4,26.5,0.00,Snow,Light Snow,250,2013-04-02 22:35:00
6:37 PM,17.6,10.4,73,29.54,0.8,WSW,20.7,26.5,0.00,Snow,Light Snow,250,2013-04-02 22:37:00
6:49 PM,17.6,10.4,73,29.54,2.0,WSW,17.3,28.8,0.00,Snow,Light Snow,250,2013-04-02 22:49:00
6:53 PM,17.1,10.0,74,29.59,9.0,WSW,18.4,28.8,0.00,,Overcast,250,2013-04-02 22:53:00
7:03 PM,17.6,8.6,68,29.54,10.0,West,19.6,27.6,N/A,,Overcast,260,2013-04-02 23:03:00
7:53 PM,17.1,8.1,68,29.59,9.0,West,15.0,20.7,N/A,,Overcast,270,2013-04-02 23:53:00
8:53 PM,16.0,8.1,71,29.60,10.0,SW,4.6,-,0.00,,Overcast,230,2013-04-03 00:53:00
9:53 PM,15.1,7.0,70,29.60,10.0,WSW,5.8,-,N/A,,Partly Cloudy,240,2013-04-03 01:53:00
10:53 PM,14.0,5.0,67,29.59,10.0,WSW,9.2,-,N/A,,Mostly Cloudy,250,2013-04-03 02:53:00
11:53 PM,12.9,1.9,62,29.58,10.0,West,13.8,-,N/A,,Scattered Clouds,280,2013-04-03 03:53:00